Denver Centennial, CO

11:00 PM MDT on July 20, 2017 (GMT -0600)
Centennial

Weather History for KAPA - September, 2012

Change the Weather History Date:

Sunday, September 9, 2012

  Actual Average Record
Temperature  
Mean Temperature 67 °F -  
Max Temperature 85 °F 77 °F 89 °F (1998)
Min Temperature 48 °F 49 °F 37 °F (2001)
Cooling Degree Days 2    
Month to date cooling degree days 49  
Growing Degree Days 17 (Base 50)    
Moisture  
Dew Point 27 °F    
Average Humidity 27    
Maximum Humidity 44    
Minimum Humidity 10    
Precipitation  
Precipitation 0.00 in - - ()
Month to date precipitation T  
Year to date precipitation 10.38  
Sea Level Pressure  
Sea Level Pressure 30.06 in    
Wind  
Wind Speed 9 mph (South)    
Max Wind Speed 28 mph    
Max Gust Speed 37 mph    
Visibility 10 miles    
Events      
Averages and records for this station are not official NWS values.
T = Trace of Precipitation, MM = Missing Value Source: NWS Daily Summary

Daily Weather History Graph

Daily Weather History Graph

Search for Another Location

Airport or City:

Trip Planner

Search our weather history database for the weather conditions in past years. The results will help you decide how hot, cold, wet, or windy it might be!

Date:

Astronomy

Sep. 09, 2012 Rise Set
Actual Time 6:35 AM MDT 7:16 PM MDT
Civil Twilight 6:08 AM MDT 7:43 PM MDT
Nautical Twilight 5:36 AM MDT 8:16 PM MDT
Astronomical Twilight 5:02 AM MDT 8:49 PM MDT
Moon 12:07 AM MDT (9/9) 3:03 PM MDT (9/9)
Length of Visible Light 13h 35m
Length of Day
12h 41m
Last Quarter, 39% of the Moon is Illuminated
Sep 9
Last Quarter
Sep 15
New
Sep 22
First Quarter
Sep 29
Full
Oct 8
Last Quarter

Hourly Weather History & Observations

Time (MDT) Temp. Dew Point Humidity Pressure Visibility Wind Dir Wind Speed Gust Speed Precip Events Conditions
12:53 AM 54.0 °F 30.0 °F 40% 30.21 in 10.0 mi South 6.9 mph - N/A   Clear
1:53 AM 55.0 °F 30.0 °F 38% 30.18 in 10.0 mi South 6.9 mph - N/A   Clear
2:53 AM 52.0 °F 28.0 °F 40% 30.18 in 10.0 mi South 8.1 mph - N/A   Clear
3:53 AM 50.0 °F 28.9 °F 44% 30.17 in 10.0 mi SE 5.8 mph - N/A   Clear
4:53 AM 51.1 °F 28.9 °F 43% 30.17 in 10.0 mi SSE 8.1 mph - N/A   Clear
5:53 AM 51.1 °F 28.9 °F 43% 30.18 in 10.0 mi South 4.6 mph - N/A   Clear
6:53 AM 51.1 °F 30.0 °F 44% 30.19 in 10.0 mi SSE 4.6 mph - N/A   Clear
7:53 AM 57.0 °F 32.0 °F 39% 30.18 in 10.0 mi South 4.6 mph - N/A   Clear
8:53 AM 66.9 °F 35.1 °F 31% 30.15 in 10.0 mi SSW 6.9 mph - N/A   Clear
9:53 AM 73.0 °F 35.1 °F 25% 30.14 in 10.0 mi South 6.9 mph - N/A   Clear
10:53 AM 77.0 °F 33.1 °F 20% 30.12 in 10.0 mi Variable 4.6 mph - N/A   Clear
11:53 AM 81.0 °F 30.0 °F 16% 30.07 in 10.0 mi South 5.8 mph - N/A   Clear
12:53 PM 82.9 °F 25.0 °F 12% 30.04 in 10.0 mi Variable 5.8 mph 17.3 mph N/A   Clear
1:53 PM 84.0 °F 23.0 °F 11% 30.01 in 10.0 mi East 8.1 mph - N/A   Partly Cloudy
2:53 PM 84.9 °F 26.1 °F 12% 29.99 in 10.0 mi South 16.1 mph 19.6 mph N/A   Partly Cloudy
3:53 PM 84.0 °F 26.1 °F 12% 29.98 in 10.0 mi SSE 16.1 mph 26.5 mph N/A   Partly Cloudy
4:53 PM 82.9 °F 28.0 °F 14% 29.96 in 10.0 mi SSE 18.4 mph 24.2 mph N/A   Partly Cloudy
5:53 PM 81.0 °F 26.1 °F 13% 29.95 in 10.0 mi SSE 19.6 mph 32.2 mph N/A   Partly Cloudy
6:53 PM 75.9 °F 21.9 °F 13% 29.95 in 10.0 mi South 24.2 mph 33.4 mph N/A   Partly Cloudy
7:53 PM 73.0 °F 21.0 °F 14% 29.95 in 10.0 mi South 23.0 mph 28.8 mph N/A   Partly Cloudy
8:53 PM 70.0 °F 21.0 °F 16% 29.96 in 10.0 mi South 13.8 mph - N/A   Clear
9:53 PM 71.1 °F 23.0 °F 16% 29.94 in 10.0 mi South 15.0 mph 23.0 mph N/A   Clear
10:53 PM 69.1 °F 23.0 °F 18% 29.93 in 10.0 mi South 18.4 mph 28.8 mph N/A   Clear
11:53 PM 66.0 °F 25.0 °F 21% 29.92 in 10.0 mi South 10.4 mph - N/A   Clear